#timestamp,LO_Frequency,Hit,StdDev 
1502971215.1,286047001.0,N,1.3
1502971216.0,286047001.0,N,1.4
1502971235.8,286047000.5,N,1.4
1502971255.7,286046998.3,N,1.3
1502971275.5,286047000.3,N,1.3
1502971295.3,286046998.6,N,1.2
1502971315.2,286046998.1,N,1.2
1502971335.9,286046998.9,N,1.2
1502971355.7,286046998.2,N,1.2
1502971375.6,286046998.1,N,1.2
1502971395.4,286046998.2,N,1.1
1502971415.2,286046998.5,N,1.1
1502971435.1,286046999.2,N,1.1
1502971436.0,286046999.2,N,1.1
1502971455.8,286046998.8,N,1.0
1502971475.6,286046999.1,N,1.0
1502971495.5,286046999.3,N,1.0
1502971515.3,286046996.6,Y,0.0
1502971535.1,286046998.5,P,0.2
1502971555.9,286046998.2,P,0.3
1502971575.7,286046999.4,N,0.5
1502971595.5,286046999.2,N,0.4
1502971615.4,286046996.6,Y,0.0
1502971635.2,286046999.4,P,0.3
1502971655.0,286046998.4,P,0.4
1502971655.9,286046998.4,P,0.4
1502971675.8,286047001.2,N,1.0
1502971695.6,286047000.2,N,1.0
1502971715.4,286046998.2,N,1.0
1502971735.3,286047000.9,N,1.1
1502971755.1,286047000.3,N,1.1
1502971775.8,286046998.3,N,1.1
1502971795.7,286047002.7,N,1.4
1502971815.5,286047002.3,N,1.5
1502971835.3,286046999.9,N,1.5
1502971855.2,286047001.0,N,1.4
1502971875.0,286047001.1,N,1.4
1502971875.9,286047001.1,N,1.4
1502971895.7,286046998.2,N,1.4
1502971915.6,286046998.3,N,1.4
1502971935.4,286046999.1,N,1.4
1502971955.2,286046998.9,N,1.4
1502971975.1,286046999.0,N,1.4
1502971976.0,286046999.0,N,1.4
1502971995.8,286046998.3,N,1.4
1502972015.7,286046998.9,N,1.3
1502972035.5,286046998.1,N,1.3
1502972055.3,286046998.2,N,1.3
1502972075.2,286046998.7,N,1.3
1502972095.9,286047001.0,N,1.3
1502972115.7,286047000.8,N,1.3
1502972135.6,286046998.2,N,1.3
1502972155.4,286682703.8,Y,0.0
1502972175.2,286046998.5,P,0.5
1502972195.1,286046999.1,N,0.4
1502972196.0,286046999.1,N,0.4
1502972215.8,286046996.5,Y,0.0
1502972235.6,286046998.6,P,0.2
1502972255.5,286047001.2,P,1.1
1502972275.3,286046998.1,N,1.2
1502972295.1,286047001.2,N,1.3
1502972315.9,286046998.1,N,1.3
1502972335.7,286047001.0,N,1.4
1502972355.5,286047000.6,N,1.3
1502972375.4,286047002.4,N,1.5
1502972395.2,286047000.2,N,1.4
1502972415.0,286047000.1,N,1.4
1502972415.9,286047000.1,N,1.3
1502972435.8,286046999.8,N,1.2
1502972455.6,286046999.9,N,1.2
1502972475.4,286047002.7,N,1.3
1502972495.3,286047002.6,N,1.4
1502972515.1,286047003.9,N,1.6
1502972535.8,286047004.2,N,1.8
1502972555.7,286047004.1,N,1.9
1502972575.5,286047003.6,N,1.9
1502972595.3,286047004.0,N,2.0
1502972615.2,286047004.2,N,2.0
1502972635.0,286047003.5,N,2.0
1502972635.9,286047003.5,N,2.0
1502972655.7,286047003.3,N,2.0
1502972675.6,286047003.4,N,2.0
1502972695.4,286047003.5,N,2.0
1502972715.2,286047003.0,N,2.0
1502972735.1,286047003.5,N,2.0
1502972736.0,286047003.5,N,2.0
1502972755.8,286047003.0,N,1.9
1502972775.6,286047002.9,N,1.8
1502972795.5,286047003.4,N,1.8
1502972815.3,286047006.0,Y,0.0
1502972835.2,286047001.7,P,0.3
1502972855.9,286047001.3,P,0.4
1502972875.7,286047001.3,P,0.4
1502972895.6,286047003.6,Y,0.0
1502972915.4,286047002.2,P,0.3
1502972935.2,286047002.0,P,0.2
1502972955.1,286047002.1,P,0.2
1502972956.0,286047002.1,Y,0.0
1502972975.8,286046998.1,P,1.9
1502972995.6,286047000.7,N,1.6
1502973015.5,286047001.2,N,1.5
1502973035.3,286047000.5,N,1.3
1502973055.1,286047000.6,N,1.2
1502973075.9,286047001.2,N,1.1
1502973095.7,286047000.8,N,1.1
1502973115.5,286047000.0,N,1.0
1502973135.4,286047000.8,N,1.0
1502973155.2,286047002.7,N,1.1
1502973175.0,286047002.8,N,1.2
1502973175.9,286047002.8,N,1.2
1502973195.8,286047000.1,N,1.2
1502973215.6,286047000.4,N,1.2
1502973235.4,286047000.1,N,1.2
1502973255.3,286046999.8,N,1.2
1502973275.1,286047001.6,N,1.2
1502973295.8,286047002.1,N,1.2
1502973315.7,286047002.1,N,1.2
1502973335.5,286047002.0,N,1.1
1502973355.3,286047002.0,N,1.1
1502973375.2,286047002.2,N,1.1
1502973395.0,286047002.5,N,1.1
1502973395.9,286047002.5,N,1.1
1502973415.8,286047001.9,N,1.1
1502973435.6,286047001.6,N,1.1
1502973455.4,286047001.3,N,1.1
1502973475.3,286047004.0,Y,0.0
1502973495.1,286047002.0,P,0.4
1502973496.0,286047002.0,P,0.3
1502973515.8,286047002.5,P,0.4
1502973535.7,286047002.5,Y,0.0
1502973555.5,286047001.1,P,0.4
1502973575.3,286047000.9,N,0.5
1502973595.2,286046998.5,P,1.3
1502973615.9,286047000.5,N,1.1
1502973635.7,286047001.0,N,1.1
1502973655.6,286047001.2,N,1.0
1502973675.4,286046999.9,N,1.0
1502973695.2,286046999.7,N,1.0
1502973715.1,286047000.6,N,0.9
1502973716.0,286047000.6,N,0.9
1502973735.8,286047000.8,N,0.8
1502973755.6,286047001.1,N,0.8
1502973775.5,286047001.1,N,0.8
1502973795.3,286047000.8,N,0.8
1502973815.1,286047000.8,N,0.7
1502973835.9,286046998.2,N,0.9
1502973855.7,286046998.1,N,1.1
1502973875.5,286046998.4,N,1.1
1502973895.4,286047000.7,N,1.1
1502973915.2,286046998.5,N,1.1
1502973935.0,286046998.6,N,1.2
1502973935.9,286046998.6,N,1.2
1502973955.8,286047000.8,N,1.2
1502973975.6,286047000.8,N,1.1
1502973995.5,286047001.0,N,1.1
1502974015.3,286047000.9,N,1.1
1502974035.1,286047000.2,N,1.1
1502974055.9,286047001.0,N,1.1
1502974075.7,286047000.1,N,1.1
1502974095.5,286047002.2,N,1.1
1502974115.4,286047000.1,N,1.1
1502974135.2,286047000.0,N,1.1
1502974155.0,286046999.8,N,1.0
1502974155.9,286046999.8,N,1.0
1502974175.8,286047000.1,N,1.0
1502974195.6,286047000.8,N,1.0
1502974215.4,286046999.9,N,1.0
1502974235.3,286046999.7,N,1.0
1502974255.1,286047000.1,N,1.0
1502974256.0,286047000.1,N,1.0
1502974275.8,286047000.1,N,1.0
1502974295.7,286047000.1,N,1.0
1502974315.5,286046999.7,N,1.0
1502974335.3,286047000.2,N,0.9
1502974355.2,286047000.2,N,0.9
1502974375.9,286047000.0,N,0.9
1502974395.7,286046999.7,N,0.8
1502974415.6,286046999.8,N,0.7
1502974435.4,286047001.6,N,0.8
1502974455.2,286047002.2,N,0.8
1502974475.1,286047002.8,Y,0.0
1502974476.0,286047002.8,P,1.3
1502974495.8,286046999.7,N,1.3
1502974515.6,286047000.0,N,1.2
1502974535.5,286046999.8,N,1.2
1502974555.3,286047000.3,N,1.1
1502974575.1,286046999.7,N,1.0
1502974595.9,286047000.6,N,1.0
1502974615.7,286047000.2,N,0.9
1502974635.5,286047000.7,N,0.9
1502974655.4,286047000.5,N,0.8
1502974675.2,286047000.6,N,0.8
1502974695.0,286047000.7,N,0.8
1502974695.9,286047000.7,N,0.7
1502974715.8,286047000.5,N,0.7
1502974735.6,286047000.1,N,0.7
1502974755.4,286047000.4,N,0.7
1502974775.3,286047000.3,N,0.7
1502974795.1,286047000.1,N,0.6
